Location: Freistadt
(48.5112°N, 14.5013°E)
Time: 04:57:03
(UTC+01:00)

BEESAT 3 - Visible Passes

Search period start: 23 March 2023 00:00
Search period end: 02 April 2023 01:00
Orbit: 414 x 441 km, 64.9° (Epoch: 22 March)

Date Brightness Start Highest point End Pass type
(mag) Time Alt. Az. Time Alt. Az. Time Alt. Az.
23 Mar ? 04:45:52 18° SW 04:48:18 82° NW 04:51:47 10° NE visible
24 Mar ? 04:03:25 37° S 04:04:22 51° ESE 04:07:44 10° NE visible
25 Mar ? 03:20:44 26° ESE 03:20:44 26° ESE 03:23:19 10° ENE visible
25 Mar ? 04:53:52 17° W 04:55:59 32° NW 04:59:09 10° NNE visible
26 Mar ? 03:37:48 11° E 03:37:48 11° E 03:38:12 10° E visible
26 Mar ? 05:10:56 47° W 05:11:35 57° NW 05:15:00 10° NNE visible
27 Mar ? 04:27:47 53° ENE 04:27:47 53° ENE 04:30:33 10° NE visible
27 Mar ? 06:00:55 10° WNW 06:03:12 17° NW 06:05:31 10° N visible
28 Mar ? 03:44:25 20° ENE 03:44:25 20° ENE 03:45:45 10° NE visible
28 Mar ? 05:17:31 23° WNW 05:18:19 25° NW 05:21:14 10° NNE visible
29 Mar ? 04:33:55 38° NNW 04:33:55 38° NNW 04:36:39 10° NNE visible
30 Mar ? 03:50:08 26° NE 03:50:08 26° NE 03:51:46 10° NE visible
30 Mar ? 05:23:12 12° NW 05:24:33 14° NNW 05:26:25 10° N visible
31 Mar ? 03:06:09 13° NE 03:06:09 13° NE 03:06:34 10° NE visible
31 Mar ? 04:39:13 20° NW 04:39:13 20° NW 04:41:45 10° NNE visible
01 Apr ? 03:55:01 23° N 03:55:01 23° N 03:56:44 10° NNE visible
